Simultaneous Nadir Overpasses (SNOs) Predictions

Prediction of SNOs between GOES-16 and NOAA-19 Satellite Orbit:

Table of predicted SNOs for the next 14.0 days since TLE Epoch: 6/16/2017
Index Date Time (GOES-16) GOES-16 Lat,Lon NOAA-19 Lat,Lon Distance(km) Time Diff (sec)
1 06/17/2017 08:59:13 -0.00, -89.53 -0.86, -85.88 416.16 80
2 06/18/2017 21:32:13 0.01, -89.53 -1.01, -93.80 487.81 80
3 06/19/2017 21:20:47 0.01, -89.54 -0.32, -91.02 168.30 80
4 06/20/2017 21:11:59 0.01, -89.55 0.32, -88.23 151.21 80
5 06/21/2017 21:00:32 0.01, -89.56 0.95, -85.43 470.67 80
6 06/23/2017 09:33:35 -0.02, -89.59 0.85, -93.37 430.84 80
7 06/24/2017 09:22:08 -0.02, -89.60 0.21, -90.58 111.34 80
8 06/25/2017 09:08:00 -0.03, -89.62 -0.44, -87.79 208.29 80
9 06/27/2017 21:29:34 0.04, -89.64 -0.74, -92.92 375.49 80
10 06/28/2017 21:18:08 0.04, -89.65 -0.05, -90.14 55.33 80
11 06/29/2017 21:09:20 0.04, -89.67 0.60, -87.35 265.20 80




NCC Satellite Simultaneous Nadir Overpasses (SNOs) Prediction Service
